Regional Weather Roundup
Issued by NWS Upton, NY

Current Version | Previous Version | Graphics & Text | Print | Product List | Glossary Off
Versions: 1 2 3 4 5 6 7 8 9 10 11 12 13 14 15 16 17 18 19 20 21 22 23 24 25 26 27 28 29 30 31 32 33 34 35 36 37 38 39 40 41 42 43 44 45 46 47 48 49 50
000 ASUS41 KOKX 190405 RWROKX REGIONAL WEATHER ROUNDUP NATIONAL WEATHER SERVICE NEW YORK NY 1100 PM EST THU DEC 18 2014 NOTE: "FAIR" INDICATES FEW OR NO CLOUDS BELOW 12,000 FEET WITH NO SIGNIFICANT WEATHER AND/OR OBSTRUCTIONS TO VISIBILITY. NYZ071-072-176-178-NJZ106-104-190500- NEW YORK CITY METRO AREA CITY SKY/WX TMP DP RH WIND PRES REMARKS CENTRAL PARK CLEAR 38 25 59 W6 29.99S WCI 33 LAGUARDIA APRT PTCLDY 38 27 64 NW15 29.97S WCI 29 KENNEDY INTL PTCLDY 39 26 59 NW10 29.98F WCI 32 NEWARK/LIBERTY MOCLDY 37 26 64 W9G16 29.98S WCI 30 BRNX BOT. GARD N/A N/A N/A N/A NW12 29.96S TETERBORO PTCLDY 37 26 64 NW6 29.97F WCI 32 $$ NYZ177-179-078>081-190500- LONG ISLAND NEW YORK CITY SKY/WX TMP DP RH WIND PRES REMARKS FARMINGDALE CLEAR 36 26 67 NW5 29.97S WCI 32 ISLIP MOCLDY 34 26 72 W6 29.94S WCI 29 SHIRLEY MOCLDY 31 25 78 W5 29.96S WCI 26 WESTHAMPTON PTCLDY 30 23 75 W3 29.96S MONTAUK POINT N/A 39 27 62 W8G17 29.94R WCI 33 $$ NYZ052-065-067-190500- HUDSON VALLEY CITY SKY/WX TMP DP RH WIND PRES REMARKS WHITE PLAINS FAIR 35 26 69 NW12 29.93S WCI 27 NEWBURGH MOCLDY 36 27 69 NW13G21 29.96R WCI 27 MONTGOMERY CLOUDY 36 24 62 W9 29.94R WCI 29 POUGHKEEPSIE CLOUDY 37 26 64 SW3 29.96R ALBANY CLOUDY 33 25 72 NW9 29.95S WCI 25 $$ NJZ001-105-106-008-010-013-015-019>022-104-190500- NEW JERSEY CITY SKY/WX TMP DP RH WIND PRES REMARKS NEWARK/LIBERTY MOCLDY 37 26 64 W9G16 29.98S WCI 30 TETERBORO PTCLDY 37 26 64 NW6 29.97F WCI 32 CALDWELL PTCLDY 37 25 61 NW9 29.98F WCI 30 MORRISTOWN N/A 39 27 60 W9 29.98F WCI 33 SOMERVILLE CLOUDY 39 26 59 NW7 29.98F WCI 34 SUSSEX CLOUDY 36 26 67 NW5 29.98S WCI 32 ANDOVER N/A 35 26 69 VRB6 29.98F WCI 30 TRENTON CLOUDY 36 25 64 W7 30.01S WCI 30 MILLVILLE CLOUDY 36 26 67 W8 30.05S WCI 30 ATLANTIC CITY CLOUDY 35 26 69 W12 30.03S WCI 27 WRIGHTSTOWN CLOUDY 35 26 69 W8 30.00S WCI 29 TOMS RIVER CLOUDY 36 25 64 W10 30.01S WCI 28 BELMAR MOCLDY 36 21 55 W8 29.98F WCI 29 $$ PAZ047>061-062-071-190500- EASTERN PENNSYLVANIA CITY SKY/WX TMP DP RH WIND PRES REMARKS PHILADELPHIA CLOUDY 38 25 59 W9 30.05F WCI 31 ALLENTOWN CLOUDY 37 25 61 NW9 30.01S WCI 30 SCRANTON CLOUDY 34 23 64 NW8 29.98F WCI 27 $$ CTZ002-004>006-009-010-012-RIZ004-006-007-MAZ004-011-015-190500- SOUTHERN NEW ENGLAND IN CT CITY SKY/WX TMP DP RH WIND PRES REMARKS BRADLEY INTL CLOUDY 36 25 64 NW12 29.92R WCI 28 HARTFORD CLOUDY 37 25 61 NW8 29.93R WCI 31 DANBURY CLOUDY 35 24 64 W5 29.95R WCI 31 WTRBRY/OXFORD MOCLDY 32 21 64 NW3 29.92S BRIDGEPORT CLOUDY 36 28 73 W6 29.96R WCI 31 MERIDEN CLOUDY 36 26 67 NW6 29.93R WCI 31 NEW HAVEN CLOUDY 39 27 62 VRB5 29.95R CHESTER CLOUDY 36 28 75 NW13G21 29.92R WCI 27 GROTON CLOUDY 34 28 79 W7 29.92R WCI 28 WILLIMANTIC CLOUDY 36 25 64 VRB5 29.91R WCI 32 IN RI CITY SKY/WX TMP DP RH WIND PRES REMARKS PROVIDENCE CLOUDY 36 26 67 W5 29.90R WCI 32 BLOCK ISLAND CLEAR 37 25 60 NW9 29.91R WCI 31 WESTERLY PTCLDY 34 26 72 W3 29.92R IN MA CITY SKY/WX TMP DP RH WIND PRES REMARKS BOSTON MOCLDY 38 27 64 NW10 29.86R WCI 31 WORCESTER CLOUDY 32 26 78 W8 29.84R WCI 25 WESTFIELD CLOUDY 35 24 64 NW9 29.90R WCI 28 PROVINCETOWN MOCLDY 39 28 65 NW16G26 29.84F WCI 30 NANTUCKET CLEAR 37 28 70 W12 29.86S WCI 29 $$ ANZ330-335-338-340-345-350-353-355-190500- COASTAL MARINE OBSERVATIONS STATION/POSITION TIME SKY/WX TEMP WIND PRES VSBY WAVE AIR SEA DIR/SP/G HT/PER (UTC) (F) (DEG/KT/KT) (MB) (MI) (FT/S) NY HARB ENTRANCE 0400 40 47 290/ 14/ 17 1015.4 2/ 3 4S FIRE IS 0400 47 N/A 2/ 4 20S FIRE ISLAND 0300 41 49 1015.3 3/ 5 23SW MTP 0400 N/A 4/ 6 HUDSON CANYON 0400 42 55 300/ 17/ 21 1014.3 6/ 6 EXECUTION ROCKS 0400 38 42 310/ 10/ 14 N/A WESTERN LI SOUND 0400 38 280/ 10/ 12 N/A 1 CENTRAL LI SOUND 0300 38 44 280/ 14/ 17 N/A 2/ 4 EASTERN LI SOUND NOT AVBL ROBBINS REEF 0400 38 330/ 12/ 17 1013.7 $$ >>>>>>>>>>>>>>>>>>>>>>>>>>>> KEY <<<<<<<<<<<<<<<<<<<<<<<<<<< > < > SKY/WX - SKY CONDITION/PRESENT WEATHER < > TMP - TEMPERATURE IN FAHRENHEIT < > DP - DEWPOINT IN FAHRENHEIT < > RH - RELATIVE HUMIDITY IN PERCENT < > WIND - DIRECTION AND SPEED IN MPH < > PRES - MEAN SEA LEVEL PRESSURE IN INCHES OF HG < > WCI - WIND CHILL INDEX < > VSB - VISIBILITY IN MILES < > HX - HEAT INDEX < > TC - TEMPERATURE IN CELSIUS < > VRB - VARIABLE WIND DIRECTION < > < >>>>>>>>>>>>>>>>>>>>>>>>>>>> KEY <<<<<<<<<<<<<<<<<<<<<<<<<<<

USA.gov is the U.S. government's official web portal to all federal, state and local government web resources and services.